This is the latest recevied weather packets stored in our database for station/object VE1DX. If no packets are shown the sender has not sent any weather packets the latest 10 day(s).
| Time | Temp. | Humidity | Pressure | Rain* | Wind** | Luminosity | Snow |
|---|---|---|---|---|---|---|---|
| 1777906217 | 11.11° C | 55% | 1003.6 hPa | 0 mm | - | - | - |
| 1777905317 | 11.11° C | 58% | 1003.3 hPa | 0 mm | - | - | - |
| 1777904117 | 10.56° C | 61% | 1003.1 hPa | 0 mm | - | - | - |
| 1777903517 | 10.56° C | 62% | 1002.9 hPa | 0 mm | - | - | - |
| 1777902617 | 10° C | 67% | 1002.7 hPa | 0 mm | - | - | - |
| 1777902317 | 9.44° C | 65% | 1002.6 hPa | 0 mm | - | - | - |
| 1777901716 | 9.44° C | 69% | 1002.5 hPa | 0 mm | - | - | - |
| 1777901417 | 8.89° C | 70% | 1002.4 hPa | 0 mm | - | - | - |
| 1777901117 | 8.89° C | 72% | 1002.2 hPa | 0 mm | - | - | - |
| 1777900817 | 8.89° C | 73% | 1002.1 hPa | 0 mm | - | - | - |
| 1777899917 | 7.78° C | 76% | 1002 hPa | 0 mm | - | - | - |
| 1777899617 | 7.22° C | 76% | 1001.9 hPa | 0 mm | - | - | - |
| 1777898417 | 6.67° C | 79% | 1001.7 hPa | 0 mm | - | - | - |
| 1777898117 | 6.67° C | 79% | 1001.6 hPa | 0 mm | - | - | - |
| 1777897816 | 6.67° C | 81% | 1001.7 hPa | 0 mm | - | - | - |
| 1777897516 | 6.67° C | 81% | 1001.6 hPa | 0 mm | - | - | - |
| 1777897217 | 6.11° C | 81% | 1001.6 hPa | 0 mm | - | - | - |
| 1777896917 | 6.11° C | 82% | 1001.4 hPa | 0 mm | - | - | - |
| 1777896617 | 6.11° C | 82% | 1001.4 hPa | 0 mm | - | - | - |
| 1777896316 | 6.11° C | 82% | 1001.4 hPa | 0 mm | - | - | - |
| 1777896017 | 6.11° C | 82% | 1001.2 hPa | 0 mm | - | - | - |
| 1777895717 | 6.11° C | 82% | 1000.9 hPa | 0 mm | - | - | - |
| 1777895417 | 6.11° C | 83% | 1000.8 hPa | 0 mm | - | - | - |
| 1777895117 | 6.11° C | 83% | 1000.8 hPa | 0 mm | - | - | - |
| 1777894817 | 6.11° C | 84% | 1000.6 hPa | 0 mm | - | - | - |
* Rain latest hour (hover to see other rain measurements)
** Current wind speed in m/s (hover to see current wind gust speed)